Temp
70 70 69 68 68 69 68 68 68 67 67 67 67 67 65 65 63 61 60 60 59 58 59 59 59 58 57 56 56 55 54 54 54 56 58 60 60 60 61 62 63 61 61
68 68 67 68 67 66 64 65 66 65 65 65 66 65 65 62 59 57 56 56 56 55 56 57 57 62 55 53 53 51 51 51 49 48 53 56 56 58 59 59 61 64 62
68 67 66 66 65 63 64 65 65 65 64 64 63 62 60 57 56 55 55 54 53 53 53 54 55 55 52 51 50 49 49 52 48 47 47 52 54 55 55 53 54 55 58
66 66 65 65 63 62 63 62 62 62 61 60 59 58 55 53 53 53 53 50 50 52 52 53 54 52 50 49 49 47 48 46 46 45 47 48 50 52 50 49 49 50 52
66 63 62 61 61 62 61 60 59 59 58 59 58 53 52 51 51 47 47 47 47 48 50 55 54 56 57 54 49 46 45 44 44 45 46 45 45 47 45 46 46 48 50
63 62 62 61 61 59 58 57 56 55 54 54 52 49 47 50 46 47 47 45 48 49 50 51 53 54 53 52 52 53 51 44 49 50 50 50 50 49 47 44 44 45 43
64 63 62 61 59 58 57 55 52 50 51 50 47 46 43 43 45 45 47 47 48 48 50 51 55 52 49 48 47 49 50 51 51 49 46 43 43 46 49 49 49 48 45
62 62 62 60 57 56 54 51 50 49 49 48 46 45 43 45 44 43 45 45 47 48 47 50 48 47 46 44 44 44 46 52 47 49 45 47 49 49 49 49 48 49 50
58 57 58 57 55 53 51 49 49 50 48 47 46 45 42 40 43 44 44 44 45 45 47 50 49 46 43 42 43 42 44 46 50 49 48 46 45 46 48 48 46 46 44
55 55 56 55 53 51 50 48 47 49 47 48 46 44 46 40 43 43 43 43 39 42 48 47 46 45 42 42 41 46 44 43 43 48 49 48 47 47 49 46 45 44 44
56 55 54 54 52 51 48 47 47 47 48 49 46 44 43 42 40 43 43 40 39 41 47 48 48 43 42 42 42 46 43 44 46 47 47 49 48 50 50 50 48 47 43
54 54 52 52 54 51 50 47 49 45 45 46 45 43 43 43 44 42 42 42 44 40 45 47 47 42 42 42 44 42 42 45 45 46 44 42 43 45 46 47 48 49 47
53 51 51 52 51 51 49 45 44 46 45 47 47 46 45 40 39 41 41 42 43 44 46 45 44 43 43 44 44 43 43 44 43 42 41 42 43 45 46 46 46 46 45
50 49 49 46 44 43 42 40 37 35 38 42 42 42 41 37 34 35 37 37 40 44 44 44 46 43 43 43 44 44 44 43 42 40 40 41 42 42 41 42 40 40 40
49 48 47 44 41 37 36 37 36 34 35 35 34 35 34 32 33 37 36 35 35 41 42 44 42 44 43 43 40 40 41 42 39 41 40 39 39 39 38 40 39 38 37
47 44 44 42 41 39 36 34 38 38 39 38 38 37 35 37 38 39 40 39 40 41 44 41 40 37 36 35 35 35 35 38 37 41 40 38 36 35 36 37 38 37 36
42 43 45 44 42 39 37 35 32 35 39 39 38 39 39 39 39 39 40 40 39 39 35 34 34 34 34 35 35 34 33 36 37 40 38 37 36 35 35 36 37 37 37
43 45 43 45 45 44 44 41 38 34 33 33 37 38 40 40 40 40 40 39 35 36 33 34 35 35 36 36 35 35 36 38 39 39 38 37 36 35 35 36 37 37 38
45 45 46 45 46 46 45 43 43 42 38 35 35 37 38 39 39 41 41 35 34 34 35 35 37 37 37 39 38 38 37 36 37 38 37 36 36 35 36 37 37 38 38
43 45 45 45 45 45 45 43 43 42 37 36 36 36 36 34 35 37 37 37 36 36 36 37 38 38 39 38 37 37 35 35 34 35 34 34 37 38 37 38 40 40 41
44 44 39 46 46 46 45 40 41 38 36 35 36 37 33 36 37 37 37 37 37 37 37 37 38 38 38 37 36 35 34 33 32 31 32 33 35 35 38 39 42 42 42
44 44 45 46 47 46 42 41 40 39 38 38 37 38 35 37 38 37 37 38 38 38 38 37 37 37 36 35 34 33 31 30 29 29 30 33 33 35 38 40 41 42 42
44 45 46 46 46 40 41 42 41 40 39 38 38 39 39 37 37 37 38 38 38 38 38 37 35 35 34 34 33 32 30 28 28 29 30 30 33 36 39 40 40 41 41
43 45 46 46 46 40 40 40 39 39 40 39 38 38 36 36 36 37 37 38 39 38 38 37 36 35 33 32 32 32 31 29 30 31 30 31 34 39 38 38 38 40 42
42 44 45 43 44 40 39 39 38 39 41 40 39 37 36 36 35 36 36 37 38 38 38 37 34 35 34 32 31 31 30 31 30 31 31 36 38 38 38 37 40 38 41
43 45 45 43 41 42 38 37 37 38 38 39 38 36 35 34 34 34 35 36 36 37 37 37 35 34 33 32 31 31 30 30 30 31 34 37 37 37 37 38 41 38 39
MSLP
1002.74 1004.15 1004.94 1006.04 1006.96 1007.76 1008.46 1009.19 1009.68 1010.13 1010.59 1011.17 1011.50 1011.78 1012.27 1012.55 1012.96 1013.28 1013.74 1014.04 1014.12 1014.08 1013.99 1013.94 1013.86 1013.66 1013.70 1013.71 1013.71 1013.82 1013.84 1013.79 1013.75 1012.98 1012.33 1011.63 1011.09 1010.72 1010.26 1010.04 1009.92 1009.77 1009.60
1003.37 1004.79 1005.91 1006.62 1007.50 1008.37 1009.20 1009.94 1010.28 1010.78 1011.21 1011.31 1011.77 1012.42 1012.89 1013.46 1014.03 1014.37 1014.64 1014.72 1014.89 1014.96 1014.56 1014.35 1014.29 1013.98 1014.11 1014.03 1014.06 1014.31 1014.33 1014.20 1014.25 1013.73 1012.96 1012.39 1011.88 1011.32 1010.94 1010.43 1010.16 1009.42 1009.19
1004.42 1005.56 1007.09 1007.78 1008.31 1009.17 1009.94 1010.47 1010.74 1011.15 1011.55 1011.84 1012.29 1012.98 1013.94 1014.54 1014.92 1015.17 1015.36 1015.42 1015.35 1015.18 1015.08 1014.91 1014.48 1014.15 1014.45 1014.53 1014.52 1014.70 1014.70 1014.47 1014.45 1014.28 1013.79 1013.05 1012.31 1012.02 1011.53 1011.34 1011.05 1010.51 1010.06
1005.25 1006.55 1007.46 1008.62 1009.43 1010.09 1010.52 1010.91 1011.49 1011.75 1011.90 1012.53 1013.42 1014.18 1014.83 1015.59 1015.78 1015.89 1015.91 1015.61 1015.60 1015.55 1015.21 1014.96 1014.65 1014.66 1014.98 1015.06 1015.09 1015.15 1015.06 1014.86 1014.54 1014.29 1013.98 1013.59 1013.16 1012.68 1012.36 1012.10 1011.41 1011.17 1010.83
1005.80 1007.14 1008.40 1009.54 1010.23 1010.71 1011.36 1011.73 1012.01 1012.42 1013.01 1013.48 1013.96 1015.18 1015.82 1016.00 1016.34 1016.34 1016.23 1016.14 1016.07 1015.66 1015.36 1015.22 1015.26 1015.27 1015.27 1015.34 1015.41 1015.28 1015.26 1015.03 1014.72 1014.41 1014.22 1013.86 1013.54 1013.02 1012.77 1012.31 1012.04 1011.46 1010.82
1006.42 1007.99 1009.24 1010.38 1011.03 1011.56 1012.07 1012.47 1012.92 1013.31 1013.59 1014.17 1015.28 1015.89 1016.23 1016.75 1016.75 1016.53 1016.60 1016.47 1016.23 1015.92 1015.68 1015.54 1015.51 1015.52 1015.44 1015.65 1015.56 1015.38 1015.14 1014.88 1014.59 1014.21 1014.17 1013.89 1013.38 1013.21 1012.88 1012.57 1012.15 1011.66 1011.04
1007.74 1009.14 1010.39 1011.27 1011.77 1012.34 1012.77 1013.21 1013.75 1014.20 1014.52 1015.29 1016.08 1016.47 1017.04 1017.14 1017.10 1016.96 1016.54 1016.36 1016.29 1015.91 1015.73 1015.64 1015.47 1016.01 1016.07 1016.00 1015.78 1015.50 1015.12 1014.78 1014.58 1014.39 1014.52 1014.36 1013.93 1013.44 1012.98 1012.41 1011.98 1011.61 1011.11
1009.18 1010.51 1011.29 1011.81 1012.46 1013.05 1013.52 1014.11 1014.44 1014.61 1015.20 1015.74 1016.42 1017.15 1017.26 1017.76 1017.56 1017.22 1016.79 1016.64 1016.37 1016.22 1016.08 1015.84 1016.29 1016.56 1016.66 1016.53 1016.18 1015.82 1015.37 1014.87 1014.71 1014.54 1014.38 1014.09 1013.78 1013.34 1013.00 1012.53 1011.97 1011.27 1010.45
1010.75 1011.51 1012.16 1012.66 1013.30 1013.82 1014.24 1014.66 1014.79 1015.02 1015.72 1016.35 1016.86 1017.42 1017.80 1018.17 1017.96 1017.63 1017.15 1017.23 1017.12 1016.98 1016.87 1016.60 1016.89 1017.08 1016.94 1016.73 1016.46 1016.16 1015.67 1015.13 1014.50 1014.17 1013.89 1013.54 1013.17 1012.78 1012.48 1012.19 1011.69 1011.12 1010.17
1011.78 1012.40 1013.05 1013.42 1013.87 1014.30 1014.76 1015.15 1015.35 1015.65 1016.12 1016.65 1017.28 1017.58 1018.07 1018.44 1018.37 1018.05 1017.98 1017.96 1017.85 1017.52 1017.20 1017.15 1017.23 1017.28 1017.14 1016.86 1016.72 1016.33 1015.92 1015.34 1014.72 1013.82 1013.29 1013.02 1012.72 1012.44 1012.02 1011.83 1011.52 1011.14 1010.46
1012.56 1013.03 1013.60 1014.07 1014.53 1014.84 1015.17 1015.56 1016.18 1016.10 1016.33 1017.19 1017.60 1017.99 1018.42 1018.53 1018.67 1018.74 1018.74 1018.50 1018.40 1018.00 1017.52 1017.38 1017.43 1017.39 1017.17 1016.94 1016.69 1016.42 1016.14 1015.61 1014.93 1014.40 1013.82 1013.20 1012.94 1012.64 1012.12 1011.66 1011.34 1010.95 1010.48
1013.11 1013.68 1014.19 1014.46 1014.89 1015.52 1015.80 1016.19 1016.55 1016.81 1016.98 1017.50 1017.97 1018.42 1018.62 1019.03 1019.23 1019.23 1019.02 1018.71 1018.44 1018.16 1017.90 1017.82 1017.74 1017.55 1017.26 1017.11 1016.97 1016.59 1016.25 1015.75 1015.38 1014.84 1014.47 1013.93 1013.43 1012.86 1012.30 1011.70 1011.03 1010.42 1010.10
1013.76 1014.36 1014.82 1015.18 1015.91 1016.18 1016.55 1017.20 1017.26 1017.23 1017.58 1017.93 1018.18 1018.56 1019.06 1019.72 1019.62 1019.55 1019.34 1018.97 1018.69 1018.31 1018.20 1018.10 1017.96 1017.68 1017.52 1017.47 1017.31 1017.00 1016.61 1016.23 1015.82 1015.36 1014.93 1014.50 1014.04 1013.34 1012.49 1011.61 1011.00 1010.24 1009.43
1014.45 1015.35 1015.87 1016.14 1016.88 1017.54 1017.92 1018.16 1018.25 1018.53 1018.53 1018.64 1018.91 1019.38 1019.80 1020.07 1020.26 1020.00 1019.76 1019.45 1018.97 1018.45 1018.39 1018.39 1018.34 1018.27 1018.09 1017.91 1017.70 1017.50 1017.09 1016.69 1016.30 1015.88 1015.33 1014.80 1014.13 1013.40 1012.67 1011.98 1011.11 1010.17 1009.12
1014.86 1015.73 1016.66 1016.87 1017.80 1018.71 1019.18 1019.24 1019.22 1019.62 1019.29 1019.60 1019.96 1020.05 1020.36 1020.60 1020.72 1020.36 1020.00 1019.72 1019.16 1018.84 1018.86 1018.85 1018.83 1018.64 1018.50 1018.29 1018.12 1017.79 1017.34 1016.82 1016.45 1015.90 1015.38 1014.91 1014.27 1013.52 1012.79 1012.06 1011.32 1010.34 1009.49
1015.33 1016.23 1016.99 1017.54 1018.36 1018.96 1019.38 1019.77 1019.94 1019.88 1019.96 1020.06 1020.04 1020.30 1020.76 1020.53 1020.51 1020.26 1020.05 1019.76 1019.23 1019.28 1019.36 1019.51 1019.56 1019.36 1018.99 1018.66 1018.37 1017.98 1017.48 1016.96 1016.45 1015.90 1015.53 1015.13 1014.49 1013.73 1012.84 1011.94 1011.16 1010.28 1009.12
1015.94 1016.61 1017.06 1017.64 1018.32 1018.83 1019.36 1019.72 1020.34 1020.80 1020.66 1020.55 1020.48 1020.68 1020.75 1020.55 1020.32 1020.23 1020.29 1020.14 1019.95 1019.92 1019.94 1019.84 1019.77 1019.49 1019.12 1018.78 1018.52 1018.18 1017.73 1017.19 1016.72 1016.22 1015.85 1015.31 1014.62 1013.78 1012.89 1011.81 1010.86 1009.98 1008.66
1016.47 1016.73 1017.12 1017.42 1017.84 1018.31 1018.92 1019.59 1020.06 1020.31 1020.85 1020.98 1020.78 1020.94 1020.95 1020.62 1020.46 1020.52 1020.55 1020.47 1020.57 1020.37 1020.38 1020.17 1019.93 1019.63 1019.42 1019.28 1018.95 1018.52 1018.04 1017.50 1017.00 1016.54 1016.05 1015.44 1014.72 1013.97 1012.78 1011.75 1010.86 1009.90 1008.75
1016.89 1017.03 1017.12 1017.34 1017.56 1018.07 1018.67 1019.18 1019.50 1019.82 1020.26 1020.70 1020.83 1021.18 1021.20 1020.74 1020.64 1020.62 1020.78 1020.87 1020.84 1020.66 1020.44 1020.34 1020.22 1019.97 1019.84 1019.62 1019.32 1018.85 1018.50 1018.09 1017.58 1016.92 1016.35 1015.62 1014.79 1013.98 1012.83 1011.79 1010.66 1009.51 1008.52
1017.31 1017.19 1017.24 1017.60 1017.89 1018.22 1018.59 1018.98 1019.41 1019.71 1020.02 1020.56 1020.71 1020.92 1021.12 1021.11 1020.84 1020.98 1020.93 1021.01 1020.96 1020.88 1020.63 1020.62 1020.58 1020.45 1020.41 1020.24 1019.88 1019.40 1018.98 1018.52 1018.00 1017.36 1016.67 1015.97 1014.97 1013.96 1013.02 1011.90 1010.66 1009.50 1008.33
1017.39 1017.50 1017.56 1017.74 1017.99 1018.32 1018.71 1019.08 1019.53 1019.82 1020.20 1020.51 1020.57 1020.68 1020.94 1020.89 1021.10 1021.32 1021.31 1021.24 1021.23 1021.09 1020.94 1021.08 1021.15 1021.10 1021.04 1020.84 1020.47 1019.99 1019.56 1019.08 1018.49 1017.84 1017.06 1016.12 1015.17 1014.17 1013.06 1012.03 1010.94 1009.80 1008.62
1017.52 1017.61 1017.72 1017.70 1017.88 1018.27 1018.57 1018.89 1019.36 1019.86 1020.30 1020.68 1020.82 1020.87 1021.00 1020.83 1021.08 1021.60 1021.62 1021.45 1021.47 1021.40 1021.24 1021.54 1021.71 1021.68 1021.60 1021.42 1021.07 1020.63 1020.18 1019.72 1019.09 1018.31 1017.38 1016.34 1015.36 1014.20 1012.98 1011.93 1011.09 1010.08 1009.03
1017.51 1017.59 1017.54 1017.67 1017.97 1018.21 1018.55 1018.92 1019.28 1019.96 1020.36 1020.93 1021.14 1021.40 1021.63 1021.44 1021.58 1021.99 1021.98 1021.77 1021.85 1021.78 1021.69 1022.02 1022.17 1022.22 1022.09 1021.90 1021.54 1021.10 1020.68 1020.24 1019.60 1018.87 1017.86 1016.68 1015.46 1014.26 1013.04 1012.06 1011.30 1010.44 1009.60
1017.52 1017.60 1017.55 1017.70 1018.15 1018.54 1018.74 1019.13 1019.75 1020.24 1020.53 1021.14 1021.44 1021.78 1022.26 1021.89 1022.25 1022.55 1022.42 1022.19 1022.07 1022.22 1022.17 1022.48 1022.65 1022.62 1022.52 1022.27 1021.92 1021.37 1020.84 1020.27 1019.46 1018.56 1017.88 1016.86 1015.72 1014.43 1013.46 1012.60 1011.57 1010.96 1010.16
1017.79 1017.66 1017.74 1018.08 1018.44 1018.83 1019.28 1019.79 1020.24 1020.88 1021.06 1021.60 1021.98 1022.36 1022.69 1022.60 1022.82 1023.14 1023.04 1022.66 1022.53 1022.57 1022.70 1022.89 1023.10 1022.96 1022.81 1022.63 1022.30 1021.73 1020.98 1020.17 1019.39 1018.58 1017.61 1016.59 1015.84 1014.93 1014.00 1013.01 1012.06 1011.35 1010.76
1017.90 1017.75 1017.77 1018.09 1018.74 1019.34 1019.86 1020.41 1020.90 1021.30 1021.80 1022.32 1022.78 1023.07 1023.34 1023.50 1023.62 1023.71 1023.73 1023.36 1023.15 1023.10 1023.14 1023.17 1023.40 1023.28 1023.14 1022.93 1022.59 1022.09 1021.34 1020.45 1019.66 1018.76 1017.85 1016.99 1016.30 1015.42 1014.55 1013.41 1012.42 1011.90 1011.52
Wind_Speed
15 15 16 14 14 12 11 10 10 9 8 8 6 8 7 7 7 8 8 9 9 7 7 6 7 5 4 4 5 5 5 5 5 4 3 4 4 6 6 5 6 5 5
18 17 15 15 14 13 13 11 10 10 8 9 10 10 11 11 11 10 9 8 8 8 7 7 6 4 5 5 4 5 5 4 2 5 5 6 4 7 7 8 6 6 6
19 19 15 14 14 12 12 11 11 11 11 11 11 12 12 11 10 9 8 7 7 7 7 7 7 4 4 4 4 5 4 4 4 3 4 4 4 8 7 6 9 10 9
19 18 17 14 13 12 12 12 11 10 11 10 10 12 12 11 10 9 7 7 7 6 7 7 6 7 7 6 6 6 5 5 4 3 4 5 5 8 4 6 10 5 8
21 18 16 12 12 13 12 12 12 11 9 9 13 11 10 10 8 6 6 6 6 6 6 5 7 13 14 11 3 5 5 4 4 4 5 4 4 6 5 4 4 7 7
21 17 15 13 12 12 11 11 10 9 9 8 12 11 10 8 10 11 8 4 5 5 5 4 4 11 12 11 12 12 8 3 6 5 5 7 8 6 4 3 4 6 6
18 15 12 11 12 11 10 10 8 8 7 10 10 11 9 7 11 11 12 5 3 5 5 4 7 7 9 8 10 11 9 10 8 4 5 5 6 7 8 8 8 7 8
14 13 12 13 12 10 9 7 7 6 10 9 9 8 9 7 12 13 11 6 6 7 6 6 8 7 7 7 6 6 7 6 6 6 4 6 6 7 6 7 8 9 9
14 12 11 11 10 8 8 6 6 11 10 9 8 8 8 6 11 13 9 7 7 6 8 9 8 6 8 9 5 6 6 6 9 10 9 10 9 11 10 6 6 8 10
12 10 10 9 8 9 9 9 6 9 8 7 6 7 9 6 9 14 11 6 6 5 4 5 10 6 7 8 5 5 6 8 9 11 10 7 7 7 10 5 4 7 9
10 8 9 10 11 9 8 6 6 6 7 5 6 6 6 7 7 10 9 4 3 4 5 5 4 9 8 8 6 4 4 8 10 8 7 7 7 9 8 7 5 4 8
8 11 12 10 8 7 8 6 5 5 6 5 6 5 5 7 10 9 12 10 7 2 4 4 4 8 8 10 9 11 12 9 8 8 8 8 9 10 10 11 12 10 8
12 11 11 11 8 8 7 5 4 5 4 5 5 5 5 5 6 13 12 13 11 5 5 6 9 13 11 7 14 14 10 8 8 8 8 9 9 11 13 12 12 13 13
13 10 9 11 10 9 6 6 6 6 5 5 6 6 6 5 5 4 4 5 8 6 8 6 9 9 9 7 9 9 7 7 8 7 8 8 8 9 9 9 10 11 11
11 10 9 8 9 8 7 5 7 4 5 5 4 5 5 4 3 4 4 5 4 4 4 6 5 7 7 7 6 6 6 6 7 8 8 9 9 9 9 9 9 9 9
8 6 6 7 6 6 7 7 11 11 12 12 12 7 3 5 5 6 7 10 15 12 5 6 5 4 4 4 4 4 4 6 4 7 8 8 8 9 10 10 8 8 10
7 5 7 7 7 7 6 6 6 4 9 10 9 9 6 5 8 9 7 9 12 7 3 3 2 3 3 4 4 4 4 5 5 8 8 8 9 9 11 10 10 9 11
6 8 4 4 5 5 6 6 5 5 4 2 3 2 3 6 10 10 9 6 4 5 2 2 3 4 4 4 5 5 5 8 9 8 8 9 9 9 11 10 10 11 11
3 2 2 3 4 7 5 4 4 5 5 4 1 2 3 3 3 4 6 3 2 2 3 4 3 5 5 7 7 7 8 8 9 9 8 9 10 9 11 11 11 13 12
3 6 5 4 4 5 5 5 4 4 5 4 3 1 2 2 2 2 2 2 2 4 4 5 5 5 7 7 7 7 8 8 9 9 10 9 10 9 10 11 12 12 11
2 3 4 3 4 5 6 5 4 5 4 4 3 2 4 4 5 4 4 4 4 4 5 5 6 6 6 7 7 7 8 8 8 9 9 10 10 10 10 8 10 11 10
2 2 3 3 4 4 5 5 5 5 5 4 3 3 6 4 6 4 4 4 4 4 5 5 5 6 6 7 7 8 8 9 9 10 10 11 10 11 10 7 9 11 11
3 3 3 3 4 5 4 4 5 6 5 5 5 5 5 5 5 4 4 4 5 4 5 5 5 6 5 6 6 7 7 8 9 9 10 10 10 9 10 10 7 10 12
2 2 2 5 4 5 6 7 6 7 7 6 5 5 4 5 6 6 5 4 5 5 5 5 5 7 6 7 7 8 8 8 8 9 12 9 9 12 11 10 7 8 11
2 2 3 4 5 5 6 6 6 6 7 6 6 5 5 6 6 5 6 5 5 5 6 6 4 8 8 11 12 14 15 17 14 15 9 10 13 15 13 10 11 6 9
4 3 4 5 6 7 6 6 6 7 7 7 7 7 6 6 5 5 5 6 5 5 6 6 7 12 11 9 12 15 16 17 15 18 10 10 11 11 12 11 13 7 9
Wind_Direction
112 111 110 108 105 107 101 105 110 108 109 116 107 92 90 79 60 55 53 39 38 24 16 20 17 30 21 27 34 26 24 12 344 322 311 307 304 300 293 231 236 246 261
113 105 106 108 103 102 98 98 98 97 88 85 79 77 64 56 54 55 54 41 32 16 7 8 353 1 42 43 44 26 32 21 12 323 311 335 322 327 318 330 312 275 235
110 108 109 109 105 101 100 95 89 85 76 69 73 67 72 62 57 50 45 38 23 14 352 339 325 33 43 31 41 36 24 14 14 338 311 317 322 15 354 11 360 356 3
106 111 102 96 99 97 92 84 81 81 76 67 71 80 70 63 51 40 32 24 9 346 332 333 14 53 60 39 42 31 21 5 347 338 333 339 338 344 357 348 343 354 332
106 100 98 99 95 92 87 84 74 69 71 73 78 82 77 63 45 32 17 5 348 333 337 71 61 65 63 53 41 9 0 336 326 327 324 317 320 331 333 321 321 313 321
102 101 101 100 96 89 86 82 78 72 67 70 86 84 71 58 25 22 19 360 351 29 38 82 112 50 41 34 12 353 334 310 309 314 317 318 323 330 315 306 305 325 324
102 105 108 108 99 92 87 85 81 83 89 78 90 86 75 57 30 13 9 22 352 19 23 5 54 50 33 15 349 338 332 333 358 332 348 327 320 317 316 313 307 305 288
95 96 94 97 95 92 89 90 99 99 86 95 95 93 78 54 33 13 10 4 20 10 16 63 76 46 21 3 334 338 334 350 15 346 329 302 296 309 305 303 303 293 286
83 82 81 87 93 92 96 94 79 91 82 82 90 95 85 49 36 26 26 25 24 29 53 62 65 41 1 357 0 344 341 342 330 312 301 296 307 320 310 313 315 313 306
83 82 82 91 93 86 79 79 77 86 99 93 94 101 108 78 46 40 33 30 14 2 80 76 59 37 10 10 10 359 355 333 324 328 332 322 300 285 285 274 296 313 316
95 88 92 87 86 85 81 81 85 86 93 115 112 102 103 93 59 44 38 38 18 354 16 27 6 9 2 350 343 0 335 322 333 325 316 323 347 344 335 328 292 294 312
94 87 83 85 80 75 85 73 76 108 107 131 126 104 95 82 65 35 23 9 21 13 15 8 342 337 330 341 1 354 349 351 357 356 350 338 335 335 330 321 322 304 298
87 89 82 89 83 63 65 68 56 63 79 93 112 117 103 52 40 20 10 5 8 23 16 338 342 355 0 16 26 20 8 6 358 353 345 338 334 325 321 320 316 309 301
96 93 92 83 72 52 57 51 54 35 23 56 59 51 73 56 29 356 359 351 345 15 1 0 23 28 15 22 24 13 2 2 357 343 332 325 319 321 318 318 316 318 311
108 107 105 90 89 80 63 71 75 51 69 83 61 63 62 47 358 332 351 320 330 0 12 39 28 23 18 19 10 355 345 347 352 338 333 333 327 323 319 319 311 310 303
91 91 120 114 120 108 103 82 53 64 68 75 80 103 76 75 31 19 359 4 33 39 49 43 29 8 3 344 332 316 306 324 316 339 341 333 326 322 318 317 313 312 309
95 101 114 126 138 135 126 113 106 40 60 65 81 84 83 62 44 58 73 55 44 40 56 35 1 325 302 308 307 312 306 322 328 348 341 331 323 319 322 322 322 319 317
94 104 126 158 150 140 141 142 147 138 123 76 300 155 77 51 70 65 71 54 27 10 5 327 307 322 334 349 346 343 350 358 351 344 336 330 326 321 321 324 323 319 316
109 113 98 108 96 115 134 128 131 140 135 146 139 316 186 103 1 69 110 89 71 349 334 352 3 14 21 20 3 358 3 351 343 338 334 328 324 322 322 323 320 319 320
67 78 102 104 115 113 106 100 95 110 92 129 155 163 163 68 89 28 34 82 32 12 4 37 34 28 28 16 1 0 354 348 342 336 332 326 321 320 318 322 332 332 330
132 103 102 131 139 135 131 135 146 108 111 121 126 108 131 110 86 61 44 41 45 39 26 44 44 33 28 12 360 356 353 344 338 332 327 324 324 319 315 310 333 337 331
183 180 182 199 133 133 150 154 149 136 143 121 84 60 63 74 76 59 47 43 41 50 40 62 58 40 28 13 359 353 349 342 335 330 325 324 320 315 311 305 331 347 346
216 211 206 163 169 162 153 142 119 116 118 110 101 80 66 67 60 49 47 45 50 49 43 63 56 47 24 13 359 354 350 338 324 317 319 319 319 319 337 329 329 348 357
13 316 214 136 96 100 94 88 90 93 94 90 86 82 78 74 63 38 27 38 51 55 41 75 59 56 31 18 0 352 345 337 329 326 325 316 318 338 344 332 335 341 354
295 279 292 143 129 111 96 89 88 83 81 80 75 74 62 56 58 40 20 22 38 57 46 67 57 43 34 18 6 355 347 345 343 339 332 330 347 343 344 332 348 335 360
249 218 99 86 96 103 98 94 91 92 87 82 77 68 62 58 40 37 27 16 29 40 55 43 75 48 29 14 4 356 350 347 347 341 339 353 350 346 347 332 357 354 13